Time,TemperatureF,DewpointF,PressureIn,WindDirection,WindDirectionDegrees,WindSpeedMPH,WindSpeedGustMPH,Humidity,HourlyPrecipIn,Conditions,Clouds,dailyrainin,SoftwareType,DateUTC
2013-10-27 00:01:00,50.0,31.1,29.75,North,-999,-999.0,-999.0,48,-99.99,,,-99.99,meteohub,2013-10-27 04:01:00,
2013-10-27 00:02:00,50.0,31.1,29.75,North,-999,-999.0,-999.0,48,-99.99,,,-99.99,meteohub,2013-10-27 04:02:00,
2013-10-27 00:04:00,50.0,31.1,29.75,North,-999,-999.0,-999.0,48,-99.99,,,-99.99,meteohub,2013-10-27 04:04:00,
2013-10-27 00:09:00,50.2,31.3,29.75,North,-999,-999.0,-999.0,48,-99.99,,,-99.99,meteohub,2013-10-27 04:09:00,
2013-10-27 00:15:00,50.2,30.7,29.75,North,-999,-999.0,-999.0,47,-99.99,,,-99.99,meteohub,2013-10-27 04:15:00,
2013-10-27 00:20:00,50.2,30.7,29.75,North,-999,-999.0,-999.0,47,-99.99,,,-99.99,meteohub,2013-10-27 04:20:00,
2013-10-27 00:25:00,50.2,30.7,29.75,North,-999,-999.0,-999.0,47,-99.99,,,-99.99,meteohub,2013-10-27 04:25:00,
2013-10-27 00:30:00,50.2,30.7,29.75,North,-999,-999.0,-999.0,47,-99.99,,,-99.99,meteohub,2013-10-27 04:30:00,
2013-10-27 00:35:00,50.0,30.6,29.75,North,-999,-999.0,-999.0,47,-99.99,,,-99.99,meteohub,2013-10-27 04:35:00,
2013-10-27 00:41:00,50.0,30.6,29.75,North,-999,-999.0,-999.0,47,-99.99,,,-99.99,meteohub,2013-10-27 04:41:00,
2013-10-27 00:46:00,50.0,30.6,29.75,North,-999,-999.0,-999.0,47,-99.99,,,-99.99,meteohub,2013-10-27 04:46:00,
2013-10-27 00:51:00,50.0,30.6,29.75,North,-999,-999.0,-999.0,47,-99.99,,,-99.99,meteohub,2013-10-27 04:51:00,
2013-10-27 00:56:00,49.8,30.4,29.75,North,-999,-999.0,-999.0,47,-99.99,,,-99.99,meteohub,2013-10-27 04:56:00,
2013-10-27 01:01:00,49.6,30.2,29.75,North,-999,-999.0,-999.0,47,-99.99,,,-99.99,meteohub,2013-10-27 05:01:00,
2013-10-27 01:07:00,49.5,30.0,29.75,North,-999,-999.0,-999.0,47,-99.99,,,-99.99,meteohub,2013-10-27 05:07:00,
2013-10-27 01:12:00,49.3,30.4,29.75,North,-999,-999.0,-999.0,48,-99.99,,,-99.99,meteohub,2013-10-27 05:12:00,
2013-10-27 01:17:00,49.3,30.4,29.75,North,-999,-999.0,-999.0,48,-99.99,,,-99.99,meteohub,2013-10-27 05:17:00,
2013-10-27 01:22:00,49.5,30.6,29.75,North,-999,-999.0,-999.0,48,-99.99,,,-99.99,meteohub,2013-10-27 05:22:00,
2013-10-27 01:27:00,49.5,30.6,29.75,North,-999,-999.0,-999.0,48,-99.99,,,-99.99,meteohub,2013-10-27 05:27:00,
2013-10-27 01:32:00,49.6,30.7,29.75,North,-999,-999.0,-999.0,48,-99.99,,,-99.99,meteohub,2013-10-27 05:32:00,
2013-10-27 01:37:00,49.6,30.7,29.75,North,-999,-999.0,-999.0,48,-99.99,,,-99.99,meteohub,2013-10-27 05:37:00,
2013-10-27 01:42:00,49.6,30.7,29.75,North,-999,-999.0,-999.0,48,-99.99,,,-99.99,meteohub,2013-10-27 05:42:00,
2013-10-27 01:47:00,49.6,30.7,29.75,North,-999,-999.0,-999.0,48,-99.99,,,-99.99,meteohub,2013-10-27 05:47:00,
2013-10-27 01:52:00,49.8,30.9,29.75,North,-999,-999.0,-999.0,48,-99.99,,,-99.99,meteohub,2013-10-27 05:52:00,
2013-10-27 01:57:00,49.8,30.9,29.75,North,-999,-999.0,-999.0,48,-99.99,,,-99.99,meteohub,2013-10-27 05:57:00,
2013-10-27 02:02:00,50.0,31.1,29.75,North,-999,-999.0,-999.0,48,-99.99,,,-99.99,meteohub,2013-10-27 06:02:00,
2013-10-27 02:07:00,50.0,31.1,29.75,North,-999,-999.0,-999.0,48,-99.99,,,-99.99,meteohub,2013-10-27 06:07:00,
2013-10-27 02:12:00,49.8,31.5,29.75,North,-999,-999.0,-999.0,49,-99.99,,,-99.99,meteohub,2013-10-27 06:12:00,
2013-10-27 02:17:00,49.8,31.5,29.75,North,-999,-999.0,-999.0,49,-99.99,,,-99.99,meteohub,2013-10-27 06:17:00,
2013-10-27 02:22:00,49.6,31.3,29.75,North,-999,-999.0,-999.0,49,-99.99,,,-99.99,meteohub,2013-10-27 06:22:00,
2013-10-27 02:27:00,49.3,30.9,29.75,North,-999,-999.0,-999.0,49,-99.99,,,-99.99,meteohub,2013-10-27 06:27:00,
2013-10-27 02:32:00,49.1,30.7,29.75,North,-999,-999.0,-999.0,49,-99.99,,,-99.99,meteohub,2013-10-27 06:32:00,
2013-10-27 02:37:00,48.9,31.1,29.75,North,-999,-999.0,-999.0,50,-99.99,,,-99.99,meteohub,2013-10-27 06:37:00,
2013-10-27 02:42:00,48.6,30.7,29.75,North,-999,-999.0,-999.0,50,-99.99,,,-99.99,meteohub,2013-10-27 06:42:00,
2013-10-27 02:47:00,48.6,30.7,29.75,North,-999,-999.0,-999.0,50,-99.99,,,-99.99,meteohub,2013-10-27 06:47:00,
2013-10-27 02:52:00,48.4,30.6,29.75,North,-999,-999.0,-999.0,50,-99.99,,,-99.99,meteohub,2013-10-27 06:52:00,
2013-10-27 02:57:00,48.4,30.6,29.75,North,-999,-999.0,-999.0,50,-99.99,,,-99.99,meteohub,2013-10-27 06:57:00,
2013-10-27 03:02:00,48.2,30.4,29.75,North,-999,-999.0,-999.0,50,-99.99,,,-99.99,meteohub,2013-10-27 07:02:00,
2013-10-27 03:07:00,48.2,30.4,29.75,North,-999,-999.0,-999.0,50,-99.99,,,-99.99,meteohub,2013-10-27 07:07:00,
2013-10-27 03:12:00,48.2,30.9,29.75,North,-999,-999.0,-999.0,51,-99.99,,,-99.99,meteohub,2013-10-27 07:12:00,
2013-10-27 03:17:00,48.0,30.7,29.75,North,-999,-999.0,-999.0,51,-99.99,,,-99.99,meteohub,2013-10-27 07:17:00,
2013-10-27 03:22:00,47.8,31.1,29.72,North,-999,-999.0,-999.0,52,-99.99,,,-99.99,meteohub,2013-10-27 07:22:00,
2013-10-27 03:27:00,47.7,30.9,29.72,North,-999,-999.0,-999.0,52,-99.99,,,-99.99,meteohub,2013-10-27 07:27:00,
2013-10-27 03:32:00,47.7,30.9,29.72,North,-999,-999.0,-999.0,52,-99.99,,,-99.99,meteohub,2013-10-27 07:32:00,
2013-10-27 03:37:00,47.5,31.3,29.75,North,-999,-999.0,-999.0,53,-99.99,,,-99.99,meteohub,2013-10-27 07:37:00,
2013-10-27 03:42:00,47.5,31.3,29.75,North,-999,-999.0,-999.0,53,-99.99,,,-99.99,meteohub,2013-10-27 07:42:00,
2013-10-27 03:47:00,47.5,31.3,29.75,North,-999,-999.0,-999.0,53,-99.99,,,-99.99,meteohub,2013-10-27 07:47:00,
2013-10-27 03:52:00,47.5,31.3,29.75,North,-999,-999.0,-999.0,53,-99.99,,,-99.99,meteohub,2013-10-27 07:52:00,
2013-10-27 03:57:00,47.7,31.5,29.75,North,-999,-999.0,-999.0,53,-99.99,,,-99.99,meteohub,2013-10-27 07:57:00,
2013-10-27 04:02:00,47.7,31.8,29.75,North,-999,-999.0,-999.0,54,-99.99,,,-99.99,meteohub,2013-10-27 08:02:00,
2013-10-27 04:07:00,47.7,31.8,29.72,North,-999,-999.0,-999.0,54,-99.99,,,-99.99,meteohub,2013-10-27 08:07:00,
2013-10-27 04:12:00,47.7,32.4,29.72,North,-999,-999.0,-999.0,55,-99.99,,,-99.99,meteohub,2013-10-27 08:12:00,
2013-10-27 04:17:00,47.7,31.8,29.72,North,-999,-999.0,-999.0,54,-99.99,,,-99.99,meteohub,2013-10-27 08:17:00,
2013-10-27 04:22:00,47.8,32.5,29.72,North,-999,-999.0,-999.0,55,-99.99,,,-99.99,meteohub,2013-10-27 08:22:00,
2013-10-27 04:27:00,47.8,32.5,29.72,North,-999,-999.0,-999.0,55,-99.99,,,-99.99,meteohub,2013-10-27 08:27:00,
2013-10-27 04:32:00,47.8,32.5,29.72,North,-999,-999.0,-999.0,55,-99.99,,,-99.99,meteohub,2013-10-27 08:32:00,
2013-10-27 04:38:00,47.8,32.5,29.72,North,-999,-999.0,-999.0,55,-99.99,,,-99.99,meteohub,2013-10-27 08:38:00,
2013-10-27 04:43:00,47.8,32.9,29.72,North,-999,-999.0,-999.0,56,-99.99,,,-99.99,meteohub,2013-10-27 08:43:00,
2013-10-27 04:48:00,47.8,32.9,29.72,North,-999,-999.0,-999.0,56,-99.99,,,-99.99,meteohub,2013-10-27 08:48:00,
2013-10-27 04:53:00,47.8,32.9,29.72,North,-999,-999.0,-999.0,56,-99.99,,,-99.99,meteohub,2013-10-27 08:53:00,
2013-10-27 04:58:00,48.0,33.1,29.72,North,-999,-999.0,-999.0,56,-99.99,,,-99.99,meteohub,2013-10-27 08:58:00,
2013-10-27 05:03:00,47.8,33.4,29.72,North,-999,-999.0,-999.0,57,-99.99,,,-99.99,meteohub,2013-10-27 09:03:00,
2013-10-27 05:08:00,47.8,33.4,29.72,North,-999,-999.0,-999.0,57,-99.99,,,-99.99,meteohub,2013-10-27 09:08:00,
2013-10-27 05:14:00,47.8,33.4,29.72,North,-999,-999.0,-999.0,57,-99.99,,,-99.99,meteohub,2013-10-27 09:14:00,
2013-10-27 05:19:00,47.5,33.1,29.72,North,-999,-999.0,-999.0,57,-99.99,,,-99.99,meteohub,2013-10-27 09:19:00,
2013-10-27 05:24:00,47.3,32.9,29.72,North,-999,-999.0,-999.0,57,-99.99,,,-99.99,meteohub,2013-10-27 09:24:00,
2013-10-27 05:29:00,47.1,32.7,29.72,North,-999,-999.0,-999.0,57,-99.99,,,-99.99,meteohub,2013-10-27 09:29:00,
2013-10-27 05:34:00,46.8,32.7,29.72,North,-999,-999.0,-999.0,58,-99.99,,,-99.99,meteohub,2013-10-27 09:34:00,
2013-10-27 05:39:00,46.8,32.7,29.72,North,-999,-999.0,-999.0,58,-99.99,,,-99.99,meteohub,2013-10-27 09:39:00,
2013-10-27 05:44:00,46.4,32.5,29.72,North,-999,-999.0,-999.0,58,-99.99,,,-99.99,meteohub,2013-10-27 09:44:00,
2013-10-27 05:49:00,46.2,32.7,29.72,North,-999,-999.0,-999.0,59,-99.99,,,-99.99,meteohub,2013-10-27 09:49:00,
2013-10-27 05:54:00,46.0,32.9,29.72,North,-999,-999.0,-999.0,60,-99.99,,,-99.99,meteohub,2013-10-27 09:54:00,
2013-10-27 06:00:00,45.9,32.7,29.72,North,-999,-999.0,-999.0,60,-99.99,,,-99.99,meteohub,2013-10-27 10:00:00,
2013-10-27 06:05:00,45.3,32.4,29.72,North,-999,-999.0,-999.0,60,-99.99,,,-99.99,meteohub,2013-10-27 10:05:00,
2013-10-27 06:10:00,44.8,32.2,29.72,North,-999,-999.0,-999.0,61,-99.99,,,-99.99,meteohub,2013-10-27 10:10:00,
2013-10-27 06:15:00,44.6,32.4,29.72,North,-999,-999.0,-999.0,62,-99.99,,,-99.99,meteohub,2013-10-27 10:15:00,
2013-10-27 06:20:00,44.4,32.7,29.72,North,-999,-999.0,-999.0,63,-99.99,,,-99.99,meteohub,2013-10-27 10:20:00,
2013-10-27 06:25:00,44.2,32.5,29.72,North,-999,-999.0,-999.0,63,-99.99,,,-99.99,meteohub,2013-10-27 10:25:00,
2013-10-27 06:30:00,44.1,32.7,29.72,North,-999,-999.0,-999.0,64,-99.99,,,-99.99,meteohub,2013-10-27 10:30:00,
2013-10-27 06:35:00,44.1,32.7,29.72,North,-999,-999.0,-999.0,64,-99.99,,,-99.99,meteohub,2013-10-27 10:35:00,
2013-10-27 06:41:00,43.3,31.6,29.72,North,-999,-999.0,-999.0,63,-99.99,,,-99.99,meteohub,2013-10-27 10:41:00,
2013-10-27 06:46:00,43.0,32.0,29.72,North,-999,-999.0,-999.0,65,-99.99,,,-99.99,meteohub,2013-10-27 10:46:00,
2013-10-27 06:51:00,43.2,32.5,29.75,North,-999,-999.0,-999.0,66,-99.99,,,-99.99,meteohub,2013-10-27 10:51:00,
2013-10-27 06:56:00,43.0,32.4,29.75,North,-999,-999.0,-999.0,66,-99.99,,,-99.99,meteohub,2013-10-27 10:56:00,
2013-10-27 07:01:00,42.8,32.2,29.75,North,-999,-999.0,-999.0,66,-99.99,,,-99.99,meteohub,2013-10-27 11:01:00,
2013-10-27 07:06:00,42.6,32.5,29.75,North,-999,-999.0,-999.0,67,-99.99,,,-99.99,meteohub,2013-10-27 11:06:00,
2013-10-27 07:11:00,42.4,32.7,29.75,North,-999,-999.0,-999.0,68,-99.99,,,-99.99,meteohub,2013-10-27 11:11:00,
2013-10-27 07:16:00,42.4,32.7,29.75,North,-999,-999.0,-999.0,68,-99.99,,,-99.99,meteohub,2013-10-27 11:16:00,
2013-10-27 07:21:00,42.1,32.4,29.72,North,-999,-999.0,-999.0,68,-99.99,,,-99.99,meteohub,2013-10-27 11:21:00,
2013-10-27 07:27:00,41.7,32.0,29.72,North,-999,-999.0,-999.0,68,-99.99,,,-99.99,meteohub,2013-10-27 11:27:00,
2013-10-27 07:32:00,41.7,32.4,29.72,North,-999,-999.0,-999.0,69,-99.99,,,-99.99,meteohub,2013-10-27 11:32:00,
2013-10-27 07:37:00,41.7,32.4,29.75,North,-999,-999.0,-999.0,69,-99.99,,,-99.99,meteohub,2013-10-27 11:37:00,
2013-10-27 07:42:00,41.5,32.9,29.75,North,-999,-999.0,-999.0,71,-99.99,,,-99.99,meteohub,2013-10-27 11:42:00,
2013-10-27 07:47:00,41.5,32.5,29.75,North,-999,-999.0,-999.0,70,-99.99,,,-99.99,meteohub,2013-10-27 11:47:00,
2013-10-27 07:52:00,41.4,32.7,29.75,North,-999,-999.0,-999.0,71,-99.99,,,-99.99,meteohub,2013-10-27 11:52:00,
2013-10-27 07:57:00,41.2,32.5,29.75,North,-999,-999.0,-999.0,71,-99.99,,,-99.99,meteohub,2013-10-27 11:57:00,
2013-10-27 08:02:00,41.4,32.7,29.75,North,-999,-999.0,-999.0,71,-99.99,,,-99.99,meteohub,2013-10-27 12:02:00,
2013-10-27 08:07:00,41.4,32.7,29.75,North,-999,-999.0,-999.0,71,-99.99,,,-99.99,meteohub,2013-10-27 12:07:00,
2013-10-27 08:12:00,41.4,32.7,29.75,North,-999,-999.0,-999.0,71,-99.99,,,-99.99,meteohub,2013-10-27 12:12:00,
2013-10-27 08:17:00,41.5,32.9,29.75,North,-999,-999.0,-999.0,71,-99.99,,,-99.99,meteohub,2013-10-27 12:17:00,
2013-10-27 08:22:00,41.5,33.3,29.78,North,-999,-999.0,-999.0,72,-99.99,,,-99.99,meteohub,2013-10-27 12:22:00,
2013-10-27 08:27:00,41.7,33.4,29.78,North,-999,-999.0,-999.0,72,-99.99,,,-99.99,meteohub,2013-10-27 12:27:00,
2013-10-27 08:32:00,41.9,34.0,29.78,North,-999,-999.0,-999.0,73,-99.99,,,-99.99,meteohub,2013-10-27 12:32:00,
2013-10-27 08:37:00,42.3,34.2,29.78,North,-999,-999.0,-999.0,73,-99.99,,,-99.99,meteohub,2013-10-27 12:37:00,
2013-10-27 08:42:00,42.3,34.2,29.78,North,-999,-999.0,-999.0,73,-99.99,,,-99.99,meteohub,2013-10-27 12:42:00,
2013-10-27 08:47:00,42.6,34.9,29.78,North,-999,-999.0,-999.0,74,-99.99,,,-99.99,meteohub,2013-10-27 12:47:00,
2013-10-27 08:52:00,43.0,35.2,29.78,North,-999,-999.0,-999.0,74,-99.99,,,-99.99,meteohub,2013-10-27 12:52:00,
2013-10-27 08:57:00,43.3,35.6,29.78,North,-999,-999.0,-999.0,74,-99.99,,,-99.99,meteohub,2013-10-27 12:57:00,
2013-10-27 09:02:00,43.7,36.0,29.78,North,-999,-999.0,-999.0,74,-99.99,,,-99.99,meteohub,2013-10-27 13:02:00,
2013-10-27 09:07:00,44.2,36.5,29.78,North,-999,-999.0,-999.0,74,-99.99,,,-99.99,meteohub,2013-10-27 13:07:00,
2013-10-27 09:12:00,44.8,37.0,29.78,North,-999,-999.0,-999.0,74,-99.99,,,-99.99,meteohub,2013-10-27 13:12:00,
2013-10-27 09:17:00,45.1,37.8,29.78,North,-999,-999.0,-999.0,75,-99.99,,,-99.99,meteohub,2013-10-27 13:17:00,
2013-10-27 09:22:00,45.7,37.9,29.78,North,-999,-999.0,-999.0,74,-99.99,,,-99.99,meteohub,2013-10-27 13:22:00,
2013-10-27 09:27:00,46.4,38.7,29.78,North,-999,-999.0,-999.0,74,-99.99,,,-99.99,meteohub,2013-10-27 13:27:00,
2013-10-27 09:32:00,46.9,38.8,29.78,North,-999,-999.0,-999.0,73,-99.99,,,-99.99,meteohub,2013-10-27 13:32:00,
2013-10-27 09:37:00,47.5,38.8,29.78,North,-999,-999.0,-999.0,72,-99.99,,,-99.99,meteohub,2013-10-27 13:37:00,
2013-10-27 09:42:00,48.2,39.2,29.78,North,-999,-999.0,-999.0,71,-99.99,,,-99.99,meteohub,2013-10-27 13:42:00,
2013-10-27 09:47:00,48.7,39.4,29.78,North,-999,-999.0,-999.0,70,-99.99,,,-99.99,meteohub,2013-10-27 13:47:00,
2013-10-27 09:52:00,49.6,39.9,29.78,North,-999,-999.0,-999.0,69,-99.99,,,-99.99,meteohub,2013-10-27 13:52:00,
2013-10-27 09:57:00,50.2,39.7,29.78,North,-999,-999.0,-999.0,67,-99.99,,,-99.99,meteohub,2013-10-27 13:57:00,
2013-10-27 10:02:00,50.7,39.7,29.78,North,-999,-999.0,-999.0,66,-99.99,,,-99.99,meteohub,2013-10-27 14:02:00,
2013-10-27 10:07:00,51.6,39.9,29.81,North,-999,-999.0,-999.0,64,-99.99,,,-99.99,meteohub,2013-10-27 14:07:00,
2013-10-27 10:12:00,52.3,40.1,29.81,North,-999,-999.0,-999.0,63,-99.99,,,-99.99,meteohub,2013-10-27 14:12:00,
2013-10-27 10:17:00,52.9,40.3,29.81,North,-999,-999.0,-999.0,62,-99.99,,,-99.99,meteohub,2013-10-27 14:17:00,
2013-10-27 10:22:00,53.4,39.9,29.81,North,-999,-999.0,-999.0,60,-99.99,,,-99.99,meteohub,2013-10-27 14:22:00,
2013-10-27 10:27:00,54.1,40.1,29.81,North,-999,-999.0,-999.0,59,-99.99,,,-99.99,meteohub,2013-10-27 14:27:00,
2013-10-27 10:32:00,54.5,40.1,29.81,North,-999,-999.0,-999.0,58,-99.99,,,-99.99,meteohub,2013-10-27 14:32:00,
2013-10-27 10:37:00,55.0,40.1,29.81,North,-999,-999.0,-999.0,57,-99.99,,,-99.99,meteohub,2013-10-27 14:37:00,
2013-10-27 10:42:00,55.6,39.2,29.81,North,-999,-999.0,-999.0,54,-99.99,,,-99.99,meteohub,2013-10-27 14:42:00,
2013-10-27 10:47:00,55.9,39.0,29.81,North,-999,-999.0,-999.0,53,-99.99,,,-99.99,meteohub,2013-10-27 14:47:00,
2013-10-27 10:52:00,56.3,38.8,29.81,North,-999,-999.0,-999.0,52,-99.99,,,-99.99,meteohub,2013-10-27 14:52:00,
2013-10-27 10:57:00,56.7,38.8,29.81,North,-999,-999.0,-999.0,51,-99.99,,,-99.99,meteohub,2013-10-27 14:57:00,
2013-10-27 11:02:00,57.2,39.2,29.81,North,-999,-999.0,-999.0,51,-99.99,,,-99.99,meteohub,2013-10-27 15:02:00,
2013-10-27 11:07:00,57.6,39.0,29.81,North,-999,-999.0,-999.0,50,-99.99,,,-99.99,meteohub,2013-10-27 15:07:00,
2013-10-27 11:12:00,57.9,38.8,29.81,North,-999,-999.0,-999.0,49,-99.99,,,-99.99,meteohub,2013-10-27 15:12:00,
2013-10-27 11:17:00,58.3,37.6,29.81,North,-999,-999.0,-999.0,46,-99.99,,,-99.99,meteohub,2013-10-27 15:17:00,
2013-10-27 11:22:00,58.6,38.5,29.78,North,-999,-999.0,-999.0,47,-99.99,,,-99.99,meteohub,2013-10-27 15:22:00,
2013-10-27 11:27:00,59.0,38.3,29.78,North,-999,-999.0,-999.0,46,-99.99,,,-99.99,meteohub,2013-10-27 15:27:00,
2013-10-27 11:32:00,59.2,38.5,29.78,North,-999,-999.0,-999.0,46,-99.99,,,-99.99,meteohub,2013-10-27 15:32:00,
2013-10-27 11:37:00,59.5,38.3,29.78,North,-999,-999.0,-999.0,45,-99.99,,,-99.99,meteohub,2013-10-27 15:37:00,
2013-10-27 11:42:00,59.9,38.5,29.78,North,-999,-999.0,-999.0,45,-99.99,,,-99.99,meteohub,2013-10-27 15:42:00,
2013-10-27 11:47:00,60.3,38.3,29.78,North,-999,-999.0,-999.0,44,-99.99,,,-99.99,meteohub,2013-10-27 15:47:00,
2013-10-27 11:52:00,60.4,38.5,29.78,North,-999,-999.0,-999.0,44,-99.99,,,-99.99,meteohub,2013-10-27 15:52:00,
2013-10-27 11:57:00,60.6,38.7,29.78,North,-999,-999.0,-999.0,44,-99.99,,,-99.99,meteohub,2013-10-27 15:57:00,
2013-10-27 12:02:00,61.0,38.3,29.78,North,-999,-999.0,-999.0,43,-99.99,,,-99.99,meteohub,2013-10-27 16:02:00,
2013-10-27 12:07:00,61.5,38.3,29.78,North,-999,-999.0,-999.0,42,-99.99,,,-99.99,meteohub,2013-10-27 16:07:00,
2013-10-27 12:12:00,62.1,38.1,29.78,North,-999,-999.0,-999.0,41,-99.99,,,-99.99,meteohub,2013-10-27 16:12:00,
2013-10-27 12:17:00,63.0,38.3,29.78,North,-999,-999.0,-999.0,40,-99.99,,,-99.99,meteohub,2013-10-27 16:17:00,
2013-10-27 12:22:00,63.5,37.4,29.78,North,-999,-999.0,-999.0,38,-99.99,,,-99.99,meteohub,2013-10-27 16:22:00,
2013-10-27 12:27:00,64.4,38.3,29.78,North,-999,-999.0,-999.0,38,-99.99,,,-99.99,meteohub,2013-10-27 16:27:00,
2013-10-27 12:32:00,64.2,36.0,29.78,North,-999,-999.0,-999.0,35,-99.99,,,-99.99,meteohub,2013-10-27 16:32:00,
2013-10-27 12:37:00,64.4,36.1,29.78,North,-999,-999.0,-999.0,35,-99.99,,,-99.99,meteohub,2013-10-27 16:37:00,
2013-10-27 12:42:00,65.3,37.8,29.78,North,-999,-999.0,-999.0,36,-99.99,,,-99.99,meteohub,2013-10-27 16:42:00,
2013-10-27 12:47:00,65.7,37.9,29.78,North,-999,-999.0,-999.0,36,-99.99,,,-99.99,meteohub,2013-10-27 16:47:00,
2013-10-27 12:52:00,66.2,37.8,29.78,North,-999,-999.0,-999.0,35,-99.99,,,-99.99,meteohub,2013-10-27 16:52:00,
2013-10-27 12:57:00,66.7,38.3,29.78,North,-999,-999.0,-999.0,35,-99.99,,,-99.99,meteohub,2013-10-27 16:57:00,
2013-10-27 13:02:00,67.3,38.7,29.78,North,-999,-999.0,-999.0,35,-99.99,,,-99.99,meteohub,2013-10-27 17:02:00,
2013-10-27 13:07:00,66.9,37.8,29.78,North,-999,-999.0,-999.0,34,-99.99,,,-99.99,meteohub,2013-10-27 17:07:00,
2013-10-27 13:12:00,67.5,38.1,29.78,North,-999,-999.0,-999.0,34,-99.99,,,-99.99,meteohub,2013-10-27 17:12:00,
2013-10-27 13:17:00,67.8,38.5,29.78,North,-999,-999.0,-999.0,34,-99.99,,,-99.99,meteohub,2013-10-27 17:17:00,
2013-10-27 13:22:00,67.8,38.5,29.75,North,-999,-999.0,-999.0,34,-99.99,,,-99.99,meteohub,2013-10-27 17:22:00,
2013-10-27 13:27:00,67.6,37.6,29.75,North,-999,-999.0,-999.0,33,-99.99,,,-99.99,meteohub,2013-10-27 17:27:00,
2013-10-27 13:32:00,66.9,36.9,29.75,North,-999,-999.0,-999.0,33,-99.99,,,-99.99,meteohub,2013-10-27 17:32:00,
2013-10-27 13:37:00,68.0,37.9,29.75,North,-999,-999.0,-999.0,33,-99.99,,,-99.99,meteohub,2013-10-27 17:37:00,
2013-10-27 13:42:00,68.0,37.9,29.75,North,-999,-999.0,-999.0,33,-99.99,,,-99.99,meteohub,2013-10-27 17:42:00,
2013-10-27 13:47:00,68.4,38.1,29.75,North,-999,-999.0,-999.0,33,-99.99,,,-99.99,meteohub,2013-10-27 17:47:00,
2013-10-27 13:52:00,68.2,37.9,29.75,North,-999,-999.0,-999.0,33,-99.99,,,-99.99,meteohub,2013-10-27 17:52:00,
2013-10-27 13:57:00,68.4,38.1,29.75,North,-999,-999.0,-999.0,33,-99.99,,,-99.99,meteohub,2013-10-27 17:57:00,
2013-10-27 14:02:00,68.7,38.5,29.75,North,-999,-999.0,-999.0,33,-99.99,,,-99.99,meteohub,2013-10-27 18:02:00,
2013-10-27 14:07:00,69.1,38.8,29.75,North,-999,-999.0,-999.0,33,-99.99,,,-99.99,meteohub,2013-10-27 18:07:00,
2013-10-27 14:12:00,68.7,38.5,29.75,North,-999,-999.0,-999.0,33,-99.99,,,-99.99,meteohub,2013-10-27 18:12:00,
2013-10-27 14:17:00,68.4,38.1,29.75,North,-999,-999.0,-999.0,33,-99.99,,,-99.99,meteohub,2013-10-27 18:17:00,
2013-10-27 14:22:00,69.1,38.8,29.75,North,-999,-999.0,-999.0,33,-99.99,,,-99.99,meteohub,2013-10-27 18:22:00,
2013-10-27 14:27:00,68.5,38.3,29.75,North,-999,-999.0,-999.0,33,-99.99,,,-99.99,meteohub,2013-10-27 18:27:00,
2013-10-27 14:32:00,68.5,38.3,29.75,North,-999,-999.0,-999.0,33,-99.99,,,-99.99,meteohub,2013-10-27 18:32:00,
2013-10-27 14:37:00,68.7,38.5,29.72,North,-999,-999.0,-999.0,33,-99.99,,,-99.99,meteohub,2013-10-27 18:37:00,
2013-10-27 14:42:00,68.7,38.5,29.72,North,-999,-999.0,-999.0,33,-99.99,,,-99.99,meteohub,2013-10-27 18:42:00,
2013-10-27 14:47:00,68.4,38.1,29.72,North,-999,-999.0,-999.0,33,-99.99,,,-99.99,meteohub,2013-10-27 18:47:00,
2013-10-27 14:52:00,68.7,38.5,29.72,North,-999,-999.0,-999.0,33,-99.99,,,-99.99,meteohub,2013-10-27 18:52:00,
2013-10-27 14:58:00,68.7,38.5,29.72,North,-999,-999.0,-999.0,33,-99.99,,,-99.99,meteohub,2013-10-27 18:58:00,
2013-10-27 15:03:00,68.4,38.1,29.72,North,-999,-999.0,-999.0,33,-99.99,,,-99.99,meteohub,2013-10-27 19:03:00,
2013-10-27 15:08:00,68.5,38.3,29.72,North,-999,-999.0,-999.0,33,-99.99,,,-99.99,meteohub,2013-10-27 19:08:00,
2013-10-27 15:13:00,68.5,38.3,29.72,North,-999,-999.0,-999.0,33,-99.99,,,-99.99,meteohub,2013-10-27 19:13:00,
2013-10-27 15:18:00,68.2,37.9,29.72,North,-999,-999.0,-999.0,33,-99.99,,,-99.99,meteohub,2013-10-27 19:18:00,
2013-10-27 15:23:00,68.0,37.9,29.72,North,-999,-999.0,-999.0,33,-99.99,,,-99.99,meteohub,2013-10-27 19:23:00,
2013-10-27 15:29:00,67.1,37.0,29.72,North,-999,-999.0,-999.0,33,-99.99,,,-99.99,meteohub,2013-10-27 19:29:00,
2013-10-27 15:34:00,67.3,37.9,29.72,North,-999,-999.0,-999.0,34,-99.99,,,-99.99,meteohub,2013-10-27 19:34:00,
2013-10-27 15:39:00,67.1,37.0,29.72,North,-999,-999.0,-999.0,33,-99.99,,,-99.99,meteohub,2013-10-27 19:39:00,
2013-10-27 15:44:00,67.1,37.0,29.72,North,-999,-999.0,-999.0,33,-99.99,,,-99.99,meteohub,2013-10-27 19:44:00,
2013-10-27 15:49:00,67.1,37.0,29.72,North,-999,-999.0,-999.0,33,-99.99,,,-99.99,meteohub,2013-10-27 19:49:00,
2013-10-27 15:55:00,66.9,36.9,29.72,North,-999,-999.0,-999.0,33,-99.99,,,-99.99,meteohub,2013-10-27 19:55:00,
2013-10-27 16:00:00,67.1,37.0,29.72,North,-999,-999.0,-999.0,33,-99.99,,,-99.99,meteohub,2013-10-27 20:00:00,
2013-10-27 16:05:00,67.3,37.9,29.75,North,-999,-999.0,-999.0,34,-99.99,,,-99.99,meteohub,2013-10-27 20:05:00,
2013-10-27 16:10:00,67.1,37.0,29.75,North,-999,-999.0,-999.0,33,-99.99,,,-99.99,meteohub,2013-10-27 20:10:00,
2013-10-27 16:15:00,67.1,37.0,29.75,North,-999,-999.0,-999.0,33,-99.99,,,-99.99,meteohub,2013-10-27 20:15:00,
2013-10-27 16:20:00,67.1,37.8,29.72,North,-999,-999.0,-999.0,34,-99.99,,,-99.99,meteohub,2013-10-27 20:20:00,
2013-10-27 16:26:00,66.9,37.8,29.72,North,-999,-999.0,-999.0,34,-99.99,,,-99.99,meteohub,2013-10-27 20:26:00,
2013-10-27 16:31:00,66.9,37.8,29.72,North,-999,-999.0,-999.0,34,-99.99,,,-99.99,meteohub,2013-10-27 20:31:00,
2013-10-27 16:36:00,66.7,37.6,29.72,North,-999,-999.0,-999.0,34,-99.99,,,-99.99,meteohub,2013-10-27 20:36:00,
2013-10-27 16:41:00,66.6,37.4,29.72,North,-999,-999.0,-999.0,34,-99.99,,,-99.99,meteohub,2013-10-27 20:41:00,
2013-10-27 16:46:00,66.4,37.2,29.72,North,-999,-999.0,-999.0,34,-99.99,,,-99.99,meteohub,2013-10-27 20:46:00,
2013-10-27 16:51:00,66.4,37.2,29.72,North,-999,-999.0,-999.0,34,-99.99,,,-99.99,meteohub,2013-10-27 20:51:00,
2013-10-27 16:57:00,66.6,37.4,29.72,North,-999,-999.0,-999.0,34,-99.99,,,-99.99,meteohub,2013-10-27 20:57:00,
2013-10-27 17:02:00,66.6,37.4,29.72,North,-999,-999.0,-999.0,34,-99.99,,,-99.99,meteohub,2013-10-27 21:02:00,
2013-10-27 17:07:00,66.4,37.2,29.75,North,-999,-999.0,-999.0,34,-99.99,,,-99.99,meteohub,2013-10-27 21:07:00,
2013-10-27 17:12:00,66.2,37.0,29.75,North,-999,-999.0,-999.0,34,-99.99,,,-99.99,meteohub,2013-10-27 21:12:00,
2013-10-27 17:17:00,66.2,37.0,29.75,North,-999,-999.0,-999.0,34,-99.99,,,-99.99,meteohub,2013-10-27 21:17:00,
2013-10-27 17:22:00,65.8,37.4,29.72,North,-999,-999.0,-999.0,35,-99.99,,,-99.99,meteohub,2013-10-27 21:22:00,
2013-10-27 17:27:00,65.7,37.2,29.72,North,-999,-999.0,-999.0,35,-99.99,,,-99.99,meteohub,2013-10-27 21:27:00,
2013-10-27 17:32:00,65.5,37.2,29.72,North,-999,-999.0,-999.0,35,-99.99,,,-99.99,meteohub,2013-10-27 21:32:00,
2013-10-27 17:37:00,65.1,36.9,29.72,North,-999,-999.0,-999.0,35,-99.99,,,-99.99,meteohub,2013-10-27 21:37:00,
2013-10-27 17:42:00,64.8,37.2,29.72,North,-999,-999.0,-999.0,36,-99.99,,,-99.99,meteohub,2013-10-27 21:42:00,
2013-10-27 17:47:00,64.0,37.2,29.72,North,-999,-999.0,-999.0,37,-99.99,,,-99.99,meteohub,2013-10-27 21:47:00,
2013-10-27 17:52:00,63.5,37.4,29.75,North,-999,-999.0,-999.0,38,-99.99,,,-99.99,meteohub,2013-10-27 21:52:00,
2013-10-27 17:57:00,63.0,37.6,29.75,North,-999,-999.0,-999.0,39,-99.99,,,-99.99,meteohub,2013-10-27 21:57:00,
2013-10-27 18:02:00,62.4,37.8,29.75,North,-999,-999.0,-999.0,40,-99.99,,,-99.99,meteohub,2013-10-27 22:02:00,
2013-10-27 18:07:00,61.9,37.9,29.75,North,-999,-999.0,-999.0,41,-99.99,,,-99.99,meteohub,2013-10-27 22:07:00,
2013-10-27 18:12:00,61.3,38.1,29.75,North,-999,-999.0,-999.0,42,-99.99,,,-99.99,meteohub,2013-10-27 22:12:00,
2013-10-27 18:17:00,61.0,38.3,29.75,North,-999,-999.0,-999.0,43,-99.99,,,-99.99,meteohub,2013-10-27 22:17:00,
2013-10-27 18:22:00,60.3,38.3,29.75,North,-999,-999.0,-999.0,44,-99.99,,,-99.99,meteohub,2013-10-27 22:22:00,
2013-10-27 18:27:00,59.9,37.9,29.75,North,-999,-999.0,-999.0,44,-99.99,,,-99.99,meteohub,2013-10-27 22:27:00,
2013-10-27 18:32:00,59.4,38.1,29.75,North,-999,-999.0,-999.0,45,-99.99,,,-99.99,meteohub,2013-10-27 22:32:00,
2013-10-27 18:38:00,59.0,37.8,29.75,North,-999,-999.0,-999.0,45,-99.99,,,-99.99,meteohub,2013-10-27 22:38:00,
2013-10-27 18:43:00,58.6,37.9,29.75,North,-999,-999.0,-999.0,46,-99.99,,,-99.99,meteohub,2013-10-27 22:43:00,
2013-10-27 18:48:00,58.1,37.4,29.75,North,-999,-999.0,-999.0,46,-99.99,,,-99.99,meteohub,2013-10-27 22:48:00,
2013-10-27 18:53:00,57.9,37.8,29.75,North,-999,-999.0,-999.0,47,-99.99,,,-99.99,meteohub,2013-10-27 22:53:00,
2013-10-27 18:58:00,57.6,37.6,29.75,North,-999,-999.0,-999.0,47,-99.99,,,-99.99,meteohub,2013-10-27 22:58:00,
2013-10-27 19:04:00,57.2,37.8,29.75,North,-999,-999.0,-999.0,48,-99.99,,,-99.99,meteohub,2013-10-27 23:04:00,
2013-10-27 19:09:00,56.8,37.4,29.75,North,-999,-999.0,-999.0,48,-99.99,,,-99.99,meteohub,2013-10-27 23:09:00,
2013-10-27 19:14:00,56.5,37.6,29.75,North,-999,-999.0,-999.0,49,-99.99,,,-99.99,meteohub,2013-10-27 23:14:00,
2013-10-27 19:19:00,56.1,37.8,29.75,North,-999,-999.0,-999.0,50,-99.99,,,-99.99,meteohub,2013-10-27 23:19:00,
2013-10-27 19:24:00,55.8,37.4,29.75,North,-999,-999.0,-999.0,50,-99.99,,,-99.99,meteohub,2013-10-27 23:24:00,
2013-10-27 19:29:00,55.4,37.6,29.75,North,-999,-999.0,-999.0,51,-99.99,,,-99.99,meteohub,2013-10-27 23:29:00,
2013-10-27 19:35:00,55.0,37.8,29.78,North,-999,-999.0,-999.0,52,-99.99,,,-99.99,meteohub,2013-10-27 23:35:00,
2013-10-27 19:40:00,54.5,37.8,29.78,North,-999,-999.0,-999.0,53,-99.99,,,-99.99,meteohub,2013-10-27 23:40:00,
2013-10-27 19:45:00,54.1,37.9,29.78,North,-999,-999.0,-999.0,54,-99.99,,,-99.99,meteohub,2013-10-27 23:45:00,
2013-10-27 19:50:00,54.0,37.8,29.78,North,-999,-999.0,-999.0,54,-99.99,,,-99.99,meteohub,2013-10-27 23:50:00,
2013-10-27 19:55:00,53.6,37.9,29.78,North,-999,-999.0,-999.0,55,-99.99,,,-99.99,meteohub,2013-10-27 23:55:00,
2013-10-27 20:00:00,53.4,38.1,29.78,North,-999,-999.0,-999.0,56,-99.99,,,-99.99,meteohub,2013-10-28 00:00:00,
2013-10-27 20:05:00,53.1,38.3,29.78,North,-999,-999.0,-999.0,57,-99.99,,,-99.99,meteohub,2013-10-28 00:05:00,
2013-10-27 20:10:00,53.1,38.7,29.78,North,-999,-999.0,-999.0,58,-99.99,,,-99.99,meteohub,2013-10-28 00:10:00,
2013-10-27 20:16:00,52.7,38.8,29.78,North,-999,-999.0,-999.0,59,-99.99,,,-99.99,meteohub,2013-10-28 00:16:00,
2013-10-27 20:21:00,52.5,38.7,29.78,North,-999,-999.0,-999.0,59,-99.99,,,-99.99,meteohub,2013-10-28 00:21:00,
2013-10-27 20:26:00,52.2,38.7,29.78,North,-999,-999.0,-999.0,60,-99.99,,,-99.99,meteohub,2013-10-28 00:26:00,
2013-10-27 20:31:00,52.0,39.0,29.78,North,-999,-999.0,-999.0,61,-99.99,,,-99.99,meteohub,2013-10-28 00:31:00,
2013-10-27 20:37:00,51.8,38.8,29.78,North,-999,-999.0,-999.0,61,-99.99,,,-99.99,meteohub,2013-10-28 00:37:00,
2013-10-27 20:42:00,51.6,39.0,29.78,North,-999,-999.0,-999.0,62,-99.99,,,-99.99,meteohub,2013-10-28 00:42:00,
2013-10-27 20:47:00,51.3,39.2,29.78,North,-999,-999.0,-999.0,63,-99.99,,,-99.99,meteohub,2013-10-28 00:47:00,
2013-10-27 20:52:00,51.1,39.4,29.78,North,-999,-999.0,-999.0,64,-99.99,,,-99.99,meteohub,2013-10-28 00:52:00,
2013-10-27 20:57:00,50.9,39.2,29.78,North,-999,-999.0,-999.0,64,-99.99,,,-99.99,meteohub,2013-10-28 00:57:00,
2013-10-27 21:02:00,50.7,39.0,29.78,North,-999,-999.0,-999.0,64,-99.99,,,-99.99,meteohub,2013-10-28 01:02:00,
2013-10-27 21:07:00,50.5,39.2,29.78,North,-999,-999.0,-999.0,65,-99.99,,,-99.99,meteohub,2013-10-28 01:07:00,
2013-10-27 21:12:00,50.4,39.4,29.78,North,-999,-999.0,-999.0,66,-99.99,,,-99.99,meteohub,2013-10-28 01:12:00,
2013-10-27 21:17:00,50.4,39.4,29.78,North,-999,-999.0,-999.0,66,-99.99,,,-99.99,meteohub,2013-10-28 01:17:00,
2013-10-27 21:22:00,50.4,39.9,29.78,North,-999,-999.0,-999.0,67,-99.99,,,-99.99,meteohub,2013-10-28 01:22:00,
2013-10-27 21:28:00,50.2,39.7,29.78,North,-999,-999.0,-999.0,67,-99.99,,,-99.99,meteohub,2013-10-28 01:28:00,
2013-10-27 21:33:00,50.0,39.6,29.78,North,-999,-999.0,-999.0,67,-99.99,,,-99.99,meteohub,2013-10-28 01:33:00,
2013-10-27 21:38:00,49.8,39.7,29.78,North,-999,-999.0,-999.0,68,-99.99,,,-99.99,meteohub,2013-10-28 01:38:00,
2013-10-27 21:43:00,49.6,39.9,29.78,North,-999,-999.0,-999.0,69,-99.99,,,-99.99,meteohub,2013-10-28 01:43:00,
2013-10-27 21:49:00,49.5,39.7,29.78,North,-999,-999.0,-999.0,69,-99.99,,,-99.99,meteohub,2013-10-28 01:49:00,
2013-10-27 21:54:00,49.3,39.9,29.78,North,-999,-999.0,-999.0,70,-99.99,,,-99.99,meteohub,2013-10-28 01:54:00,
2013-10-27 21:59:00,49.3,39.9,29.78,North,-999,-999.0,-999.0,70,-99.99,,,-99.99,meteohub,2013-10-28 01:59:00,
2013-10-27 22:04:00,49.1,39.7,29.81,North,-999,-999.0,-999.0,70,-99.99,,,-99.99,meteohub,2013-10-28 02:04:00,
2013-10-27 22:09:00,48.9,39.9,29.81,North,-999,-999.0,-999.0,71,-99.99,,,-99.99,meteohub,2013-10-28 02:09:00,
2013-10-27 22:14:00,48.9,39.9,29.81,North,-999,-999.0,-999.0,71,-99.99,,,-99.99,meteohub,2013-10-28 02:14:00,
2013-10-27 22:19:00,48.7,39.7,29.81,North,-999,-999.0,-999.0,71,-99.99,,,-99.99,meteohub,2013-10-28 02:19:00,
2013-10-27 22:25:00,48.7,39.7,29.81,North,-999,-999.0,-999.0,71,-99.99,,,-99.99,meteohub,2013-10-28 02:25:00,
2013-10-27 22:30:00,48.7,40.1,29.81,North,-999,-999.0,-999.0,72,-99.99,,,-99.99,meteohub,2013-10-28 02:30:00,
2013-10-27 22:35:00,48.7,39.7,29.81,North,-999,-999.0,-999.0,71,-99.99,,,-99.99,meteohub,2013-10-28 02:35:00,
2013-10-27 22:40:00,48.7,40.1,29.81,North,-999,-999.0,-999.0,72,-99.99,,,-99.99,meteohub,2013-10-28 02:40:00,
2013-10-27 22:45:00,48.6,39.9,29.81,North,-999,-999.0,-999.0,72,-99.99,,,-99.99,meteohub,2013-10-28 02:45:00,
2013-10-27 22:51:00,48.4,39.7,29.81,North,-999,-999.0,-999.0,72,-99.99,,,-99.99,meteohub,2013-10-28 02:51:00,
2013-10-27 22:56:00,48.2,39.6,29.81,North,-999,-999.0,-999.0,72,-99.99,,,-99.99,meteohub,2013-10-28 02:56:00,
2013-10-27 23:01:00,48.0,39.7,29.81,North,-999,-999.0,-999.0,73,-99.99,,,-99.99,meteohub,2013-10-28 03:01:00,
2013-10-27 23:06:00,48.2,39.9,29.81,North,-999,-999.0,-999.0,73,-99.99,,,-99.99,meteohub,2013-10-28 03:06:00,
2013-10-27 23:11:00,48.0,39.7,29.81,North,-999,-999.0,-999.0,73,-99.99,,,-99.99,meteohub,2013-10-28 03:11:00,
2013-10-27 23:17:00,47.7,39.4,29.81,North,-999,-999.0,-999.0,73,-99.99,,,-99.99,meteohub,2013-10-28 03:17:00,
2013-10-27 23:22:00,47.7,39.7,29.81,North,-999,-999.0,-999.0,74,-99.99,,,-99.99,meteohub,2013-10-28 03:22:00,
2013-10-27 23:27:00,47.7,39.7,29.81,North,-999,-999.0,-999.0,74,-99.99,,,-99.99,meteohub,2013-10-28 03:27:00,
2013-10-27 23:32:00,47.5,39.6,29.81,North,-999,-999.0,-999.0,74,-99.99,,,-99.99,meteohub,2013-10-28 03:32:00,
2013-10-27 23:37:00,47.5,39.6,29.81,North,-999,-999.0,-999.0,74,-99.99,,,-99.99,meteohub,2013-10-28 03:37:00,
2013-10-27 23:42:00,47.3,39.4,29.81,North,-999,-999.0,-999.0,74,-99.99,,,-99.99,meteohub,2013-10-28 03:42:00,
2013-10-27 23:47:00,47.3,39.4,29.81,North,-999,-999.0,-999.0,74,-99.99,,,-99.99,meteohub,2013-10-28 03:47:00,
2013-10-27 23:52:00,47.1,39.6,29.81,North,-999,-999.0,-999.0,75,-99.99,,,-99.99,meteohub,2013-10-28 03:52:00,
2013-10-27 23:57:00,46.9,39.4,29.81,North,-999,-999.0,-999.0,75,-99.99,,,-99.99,meteohub,2013-10-28 03:57:00,